User: anonymous   Login
Location: Unspecified
(0.0000°N, 0.0000°E)
Time: 16:05:29
(UTC+00:00)
Language:

DIWATA 2B (PO-101) - Orbit

View from above orbital plane
View from above orbital plane
View from above satellite
View from above satellite

Ground track
Ground track

The orbit is defined by the following mean orbital elements,

1 43678U          26071.32390602 +.00000000 +00000-0 +14519-3 0 00005
2 43678  98.1043 263.4680 0012102 119.1115 241.1320 14.99974799    00
Epoch (UTC): 12 March 2026 07:46:25
Eccentricity: 0.0012102
inclination: 98.1043°
perigee height: 559 km
apogee height: 575 km
right ascension of ascending node: 263.4680°
argument of perigee: 119.1115°
revolutions per day: 14.99974799
mean anomaly at epoch: 241.1320°

The dashed part of the orbit path shows where the satellite is in the earth's shadow,  

DLR